Regional Weather Roundup
Issued by NWS Goodland, KS

Home | Current Version | Previous Version | Text Only | Print | Product List | Glossary On
Versions: 1 2 3 4 5 6 7 8 9 10 11 12 13 14 15 16 17 18 19 20 21 22 23 24 25 26 27 28 29 30 31 32 33 34 35 36 37 38 39 40 41 42 43 44 45 46 47 48 49 50
000
ASUS43 KGLD 272308
RWRGLD

GOODLAND FORECAST AREA HOURLY WEATHER ROUNDUP
NATIONAL WEATHER SERVICE GOODLAND KS
500 PM MDT SAT AUG 27 2016

...OFFICIAL OBSERVATIONS...

CITY           SKY/WX    TMP DP  RH WIND       PRES   REMARKS
GOODLAND KS    CLOUDY    78  59  51 S7        30.01S
HILL CITY KS   MOSUNNY   85  67  54 SE12      29.97F
IMPERIAL NEB   CLOUDY    79  58  48 S12       30.00S
MCCOOK NEB     CLOUDY    83  63  50 SE9       29.98S
AKRON CO       MOSUNNY   82  48  30 SE8       30.05S
BURLINGTON CO  CLOUDY    75  54  47 W13       30.09R
LIMON CO       CLOUDY    75  45  34 SE16      30.09S
$$

...UNOFFICIAL OBSERVATIONS...

CITY           SKY/WX    TMP DP  RH WIND       PRES   REMARKS
COLBY KS       SUNNY     84  61  45 SE13      30.01
LENORA KS        N/A     83  32  16 MISG        N/A
NORTON KS      MOSUNNY   81  57  44 SE13      29.98S
SHARON SPRINGS   N/A     85  60  42 SE12        N/A
TRENTON NEB      N/A     82  32  16 MISG        N/A
KIT CARSON CO    N/A     77  56  48 MISG        N/A
YUMA CO          N/A     81  54  39 SE6         N/A
$$




USA.gov is the U.S. government's official web portal to all federal, state and local government web resources and services.